{"data":{"norad_id":44114,"epoch":"2026-05-24T22:22:03.797760Z","epoch_age_seconds":91576,"freshness":"FRESH","line1":"1 44114U 19020C   26144.93198840 -.00000024  00000+0  00000+0 0  9990","line2":"2 44114   0.0330   2.6716 0002597  58.5500 298.8038  5.00115503130361","mean_motion":5.00115503,"eccentricity":0.0002597,"inclination_deg":0.033,"raan_deg":2.6716,"arg_perigee_deg":58.55,"mean_anomaly_deg":298.8038,"bstar":0,"rev_number":13036,"period_min":287.93348563722,"perigee_km":8062.1390466717,"apogee_km":8069.6412743789,"semimajor_km":14444.027160525,"source":"CELESTRAK","updated_at":"2026-05-25T13:38:14.515812Z"}}